#timestamp,LO_Frequency,Hit,StdDev 
1591966815.0,286046999.0,N
1591966815.9,286046999.0,N
1591966865.8,286047001.0,E
1591966875.7,286047000.0,N
1591966895.5,286046999.7,P
1591966915.4,286046999.7,N
1591966935.2,286047002.8,Y
1591966955.1,286047000.9,P
1591966956.0,286047000.9,N
1591966975.8,286047002.4,P
1591966995.6,286047002.3,N
1591967015.5,286046999.9,N
1591967035.3,286047001.0,N
1591967055.2,286047000.8,N
1591967075.9,286047001.1,N
1591967095.7,286046999.9,N
1591967115.6,286047001.1,N
1591967135.4,286046999.3,N
1591967155.3,286046998.3,N
1591967175.1,286046999.3,N
1591967176.0,286046999.3,N
1591967195.8,286046999.0,N
1591967215.7,286046999.2,N
1591967235.5,286046999.5,N
1591967255.4,286046999.4,N
1591967275.2,286046999.6,N
1591967295.0,286046997.0,N
1591967295.9,286046997.0,N
1591967315.8,286046996.9,N
1591967335.6,286046997.0,N
1591967355.4,286046997.4,N
1591967375.3,286046997.4,N
1591967395.1,286046996.8,N
1591967415.9,286046999.0,N
1591967435.7,286047000.6,N
1591967455.5,286047000.4,N
1591967475.4,286046999.9,N
1591967495.2,286046999.9,N
1591967515.1,286046998.2,N
1591967516.0,286046998.2,N
1591967535.8,286046999.9,N
1591967555.6,286047000.6,N
1591967575.5,286047000.2,N
1591967595.3,286046998.2,N
1591967615.1,286046998.4,N
1591967635.9,286046996.5,N
1591967655.7,286046996.9,N
1591967675.6,286046999.1,N
1591967695.4,286046997.0,N
1591967715.3,286046997.7,N
1591967735.1,286046997.1,N
1591967736.0,286046997.1,N
1591967755.8,286046996.7,N
1591967775.7,286046997.6,N
1591967795.5,286046995.9,Y
1591967815.4,286046997.6,P
1591967835.2,286046997.8,P
1591967855.0,286046996.9,P
1591967855.9,286046996.9,Y
1591967875.8,286047000.8,P
1591967895.6,286047000.1,N
1591967915.5,286047002.1,N
1591967935.3,286047002.8,N
1591967955.1,286047002.3,N
1591967975.9,286047000.3,N
1591967995.7,286047001.0,N
1591968015.5,286046998.7,N
1591968035.4,286047000.1,N
1591968055.2,286047002.2,N
1591968075.1,286047002.4,N
1591968076.0,286047002.4,N
1591968095.8,286047000.5,N
1591968115.6,286046999.1,N
1591968135.5,286046999.9,N
1591968155.3,286046999.9,N
1591968175.1,286046998.1,N
1591968195.9,286046998.5,N
1591968215.7,286047000.7,N
1591968235.6,286047000.7,N
1591968255.4,286046998.8,N
1591968275.2,286047000.5,N
1591968295.1,286046998.8,N
1591968296.0,286046998.8,N
1591968315.8,286046999.4,N
1591968335.7,286046998.2,N
1591968355.5,286046995.7,N
1591968375.3,286046996.0,N
1591968395.2,286046997.0,N
1591968415.0,286046999.0,N
1591968415.9,286046999.0,N
1591968435.8,286046998.6,N
1591968455.6,286046999.4,N
1591968475.4,286046997.4,N
1591968495.3,286046997.9,N
1591968515.1,286046996.8,N
1591968535.8,286046997.6,N
1591968555.7,286046997.2,N
1591968575.5,286046996.2,N
1591968595.4,286046995.2,N
1591968615.2,286046997.1,N
1591968635.0,286046997.0,N
1591968635.9,286046997.0,N
1591968655.8,286046997.7,N
1591968675.6,286046999.6,N
1591968695.5,286046997.8,N
1591968715.3,286046996.4,N
1591968735.1,286046995.6,Y
1591968755.9,286046999.1,P
1591968775.7,286046996.5,P
1591968795.5,286046996.7,P
1591968815.4,286046999.5,N
1591968835.2,286046999.2,N
1591968855.1,286047000.6,N
1591968856.0,286047000.6,N
1591968875.8,286047004.4,N
1591968895.6,286047000.0,N
1591968915.5,286046998.0,N
1591968935.3,286046999.4,N
1591968955.2,286046996.7,N
1591968975.9,286046997.2,N
1591968995.7,286046997.6,N
1591969015.6,286046996.7,N
1591969035.4,286046999.1,N
1591969055.3,286046997.9,N
1591969075.1,286046997.8,N
1591969076.0,286046997.8,N
1591969095.8,286047001.1,N
1591969115.7,286047000.7,N
1591969135.5,286047000.7,N
1591969155.3,286047001.1,N
1591969175.2,286046999.3,N
1591969195.0,286046997.2,N
1591969195.9,286046997.2,N
1591969215.8,286046996.8,N
1591969235.6,286046999.5,N
1591969255.4,286046998.3,N
1591969275.3,286046998.4,N
1591969295.1,286047000.3,N
1591969315.9,286046998.6,N
1591969335.7,286046998.6,N
1591969355.5,286046998.3,N
1591969375.4,286047001.4,N
1591969395.2,286047000.9,N
1591969415.1,286046998.5,N
1591969416.0,286046998.5,N
1591969435.8,286046999.0,N
1591969455.6,286047001.1,N
1591969475.5,286046999.6,N
1591969495.3,286046999.4,N
1591969515.1,286047001.1,N
1591969535.9,286047004.6,Y
1591969555.7,286046998.4,P
1591969575.6,286047002.8,P
1591969595.4,286046998.2,N
1591969615.2,286047000.0,N
1591969635.1,286047000.1,N
1591969636.0,286047000.1,N
1591969655.8,286047000.8,N
1591969675.7,286047001.0,N
1591969695.5,286047001.2,N
1591969715.3,286047000.4,N
1591969735.2,286047000.0,N
1591969755.0,286047000.5,N
1591969755.9,286047000.5,N
1591969775.8,286047000.9,N
1591969795.6,286047000.0,N
1591969815.4,286047000.2,N
1591969835.3,286047000.9,N
1591969855.1,286047001.0,N
1591969875.8,286047002.0,N
1591969895.7,286047002.8,N
1591969915.5,286047002.5,N
1591969935.4,286047002.7,N
1591969955.2,286047002.6,N
1591969975.0,286047004.2,Y
1591969975.9,286047004.2,P
1591969995.8,286047004.1,N
1591970015.6,286047003.7,N
1591970035.5,286047004.3,Y
1591970055.3,286046999.0,P
1591970075.1,286046996.6,N
1591970095.9,286046997.7,N
1591970115.7,286046995.6,N
1591970135.5,286046993.7,N
1591970155.4,286046993.8,N
1591970175.2,286046993.7,N
1591970195.1,286046997.7,N
1591970196.0,286046997.7,N
1591970215.8,286046999.3,N
1591970235.6,286046996.6,N
1591970255.5,286046996.9,N
1591970275.3,286046999.2,N
1591970295.2,286046997.2,N
1591970315.9,286046996.7,N
1591970335.7,286046994.9,N
1591970355.6,286046997.6,N
1591970375.4,286046997.8,N
1591970395.2,286046997.3,N
